Home   Weather   La Ceiba   Past weeks

Flag for Honduras Past Weather in La Ceiba, Honduras — Yesterday and Last 2 Weeks

Now
81 °F

Sunny.


Feels Like: 85 °F
Forecast: 65 / 88 °F
Wind: No wind

Location: La Ceiba Airport

Current Time: Jan 20, 2017 at 10:18:31 am

Latest Report: Jan 20, 2017 at 9:00 am


Visibility: N/A

Pressure: 29.92 "Hg

Humidity: 74%

Dew Point: 72 °F

Location of La CeibaLocation

Past Weather in La Ceiba — Graph

°F

La Ceiba Temperature Yesterday

Maximum temperature yesterday: 84 °F (at 12:00 pm)
Minimum temperature yesterday: 66 °F (at 6:00 am)
Average temperature yesterday: 78 °F

High & Low Weather Summary for the Past Weeks

 TemperatureHumidityPressure
High86 °F (Jan 7, 11:00 am)100% (Jan 8, 6:00 pm)30.30 "Hg (Jan 8, 6:00 pm)
Low64 °F (Jan 12, 7:00 am)62% (Jan 13, 1:00 pm)29.83 "Hg (Jan 5, 3:00 pm)
Average77 °F81%30.02 "Hg
* Reported Jan 5 11:00 am — Jan 20 9:00 am, La Ceiba, Weather by CustomWeather, © 2017

Note: Actual official high and low records may vary slightly from our data, if they occured in-between our weather recording intervals... More about our weather records

Advertising

La Ceiba Weather History for the Previous 24 Hours

Scroll right to see more
 ConditionsComfort  
Time TempWeatherWind HumidityBarometerVisibility
9:00 am
Fri, Jan 20
81 °FSunny.No wind74%29.92 "HgN/A
8:00 am75 °FSunny.No wind78%29.89 "HgN/A
7:00 am66 °FSunny.2 mph94%29.86 "HgN/A
6:00 am66 °FPassing clouds.No wind94%29.86 "HgN/A
12:00 am70 °FPassing clouds.No wind94%29.89 "HgN/A
11:00 pm
Thu, Jan 19
70 °FPassing clouds.No wind94%29.92 "HgN/A
10:00 pm72 °FPassing clouds.No wind94%29.92 "HgN/A
9:00 pm72 °FPassing clouds.2 mph94%29.92 "HgN/A
8:00 pm73 °FPassing clouds.2 mph94%29.92 "HgN/A
7:00 pm77 °FPassing clouds.2 mph89%29.89 "HgN/A
6:00 pm79 °FPassing clouds.6 mph84%29.89 "HgN/A
5:00 pm82 °FPassing clouds.6 mph74%29.89 "HgN/A
4:00 pm82 °FPassing clouds.7 mph70%29.89 "HgN/A
3:00 pm82 °FPassing clouds.7 mph70%29.89 "HgN/A
2:00 pm82 °FPassing clouds.5 mph70%29.89 "HgN/A
1:00 pm84 °FPassing clouds.6 mph66%29.92 "HgN/A
12:00 pm84 °FScattered clouds.5 mph66%29.95 "HgN/A
11:00 am82 °FPassing clouds.5 mph74%29.98 "HgN/A
10:00 am81 °FPassing clouds.2 mph79%30.01 "HgN/A
Weather by CustomWeather, © 2017

See weather overviewHow to use our weather pages